Time,TemperatureF,DewpointF,PressureIn,WindDirection,WindDirectionDegrees,WindSpeedMPH,WindSpeedGustMPH,Humidity,HourlyPrecipIn,Conditions,Clouds,dailyrainin,SoftwareType,DateUTC
2013-02-11 00:00:00,19.1,10.0,30.20,NW,315,0.0,0.0,67,0.00,,,0.00,VWS V14.01,2013-02-11 07:00:00,
2013-02-11 00:30:00,20.3,9.7,30.16,NW,315,0.0,0.0,63,0.00,,,0.00,VWS V14.01,2013-02-11 07:30:00,
2013-02-11 01:00:00,18.8,9.7,30.16,NW,315,0.0,0.0,67,0.00,,,0.00,VWS V14.01,2013-02-11 08:00:00,
2013-02-11 01:30:00,19.4,9.6,30.13,NW,315,0.0,0.0,65,0.00,,,0.00,VWS V14.01,2013-02-11 08:30:00,
2013-02-11 02:00:00,21.6,9.9,30.12,NW,315,0.0,0.0,60,0.00,,,0.00,VWS V14.01,2013-02-11 09:00:00,
2013-02-11 02:30:00,18.1,8.3,30.13,NW,315,0.0,1.0,65,0.00,,,0.00,VWS V14.01,2013-02-11 09:30:00,
2013-02-11 03:00:00,16.2,9.1,30.14,NW,315,0.0,0.0,73,0.00,,,0.00,VWS V14.01,2013-02-11 10:00:00,
2013-02-11 03:30:00,17.0,8.3,30.15,NW,315,0.0,0.0,68,0.00,,,0.00,VWS V14.01,2013-02-11 10:30:00,
2013-02-11 04:00:00,18.3,9.5,30.14,NW,315,0.0,0.0,68,0.00,,,0.00,VWS V14.01,2013-02-11 11:00:00,
2013-02-11 04:30:00,18.4,10.3,30.13,NW,315,0.0,1.0,70,0.00,,,0.00,VWS V14.01,2013-02-11 11:30:00,
2013-02-11 05:00:00,18.9,10.4,30.13,NW,315,0.0,0.0,69,0.00,,,0.00,VWS V14.01,2013-02-11 12:00:00,
2013-02-11 05:30:00,19.2,10.1,30.08,NW,315,0.0,0.0,67,0.00,,,0.00,VWS V14.01,2013-02-11 12:30:00,
2013-02-11 06:00:00,20.0,9.8,30.09,NW,315,0.0,1.0,64,0.00,,,0.00,VWS V14.01,2013-02-11 13:00:00,
2013-02-11 06:30:00,21.4,10.4,30.09,NW,315,0.0,1.0,62,0.00,,,0.00,VWS V14.01,2013-02-11 13:30:00,
2013-02-11 07:00:00,20.5,10.3,30.10,NW,315,0.0,0.0,64,0.00,,,0.00,VWS V14.01,2013-02-11 14:00:00,
2013-02-11 07:30:00,19.1,10.0,30.14,NW,315,0.0,0.0,67,0.00,,,0.00,VWS V14.01,2013-02-11 14:30:00,
2013-02-11 08:00:00,18.9,9.8,30.13,NW,315,0.0,0.0,67,0.00,,,0.00,VWS V14.01,2013-02-11 15:00:00,
2013-02-11 08:30:00,19.5,10.3,30.13,NW,315,0.0,0.0,67,0.00,,,0.00,VWS V14.01,2013-02-11 15:30:00,
2013-02-11 09:00:00,19.7,10.5,30.13,NW,315,0.0,0.0,67,0.00,,,0.00,VWS V14.01,2013-02-11 16:00:00,
2013-02-11 09:30:00,21.0,11.4,30.13,NW,315,0.0,0.0,66,0.00,,,0.00,VWS V14.01,2013-02-11 16:30:00,
2013-02-11 10:00:00,22.5,12.2,30.12,NW,315,0.0,0.0,64,0.00,,,0.00,VWS V14.01,2013-02-11 17:00:00,
2013-02-11 10:30:00,24.4,12.9,30.12,NW,315,0.0,0.0,61,0.00,,,0.00,VWS V14.01,2013-02-11 17:30:00,
2013-02-11 11:00:00,27.0,14.2,30.11,NW,315,0.0,0.0,58,0.00,,,0.00,VWS V14.01,2013-02-11 18:00:00,
2013-02-11 11:30:00,32.4,17.6,30.08,NW,315,0.0,0.0,54,0.00,,,0.00,VWS V14.01,2013-02-11 18:30:00,
2013-02-11 12:00:00,35.0,16.3,30.03,NW,315,0.0,0.0,46,0.00,,,0.00,VWS V14.01,2013-02-11 19:00:00,
2013-02-11 12:30:00,37.2,17.8,30.01,NW,315,0.0,0.0,45,0.00,,,0.00,VWS V14.01,2013-02-11 19:30:00,
2013-02-11 13:00:00,39.5,17.8,29.98,East,90,0.0,1.0,41,0.00,,,0.00,VWS V14.01,2013-02-11 20:00:00,
2013-02-11 13:30:00,40.1,16.5,29.96,East,90,0.0,0.0,38,0.00,,,0.00,VWS V14.01,2013-02-11 20:30:00,
2013-02-11 14:00:00,41.8,17.5,29.94,WNW,292,0.0,1.0,37,0.00,,,0.00,VWS V14.01,2013-02-11 21:00:00,
2013-02-11 14:30:00,41.6,16.0,29.98,WNW,292,0.0,1.0,35,0.00,,,0.00,VWS V14.01,2013-02-11 21:30:00,
2013-02-11 15:00:00,41.2,13.6,29.97,SE,135,0.0,1.0,32,0.00,,,0.00,VWS V14.01,2013-02-11 22:00:00,
2013-02-11 15:30:00,41.2,11.4,29.98,NW,315,0.0,3.0,29,0.00,,,0.00,VWS V14.01,2013-02-11 22:30:00,
2013-02-11 16:00:00,39.8,10.9,29.99,WNW,292,0.0,2.0,30,0.00,,,0.00,VWS V14.01,2013-02-11 23:00:00,
2013-02-11 16:30:00,39.2,11.8,29.99,WNW,292,0.0,2.0,32,0.00,,,0.00,VWS V14.01,2013-02-11 23:30:00,
2013-02-11 17:00:00,38.5,11.2,30.00,WNW,292,0.0,2.0,32,0.00,,,0.00,VWS V14.01,2013-02-12 00:00:00,
2013-02-11 17:30:00,37.9,10.0,29.99,NW,315,0.0,1.0,31,0.00,,,0.00,VWS V14.01,2013-02-12 00:30:00,
2013-02-11 18:00:00,35.8,10.8,30.00,NW,315,0.0,0.0,35,0.00,,,0.00,VWS V14.01,2013-02-12 01:00:00,
2013-02-11 18:30:00,35.5,9.9,30.00,North,0,0.0,1.0,34,0.00,,,0.00,VWS V14.01,2013-02-12 01:30:00,
2013-02-11 19:00:00,32.7,14.7,30.02,NNW,338,0.0,1.0,47,0.00,,,0.00,VWS V14.01,2013-02-12 02:00:00,
2013-02-11 19:30:00,32.9,10.7,30.04,NNW,338,0.0,0.0,39,0.00,,,0.00,VWS V14.01,2013-02-12 02:30:00,
2013-02-11 20:00:00,32.7,13.2,30.04,NNW,338,0.0,1.0,44,0.00,,,0.00,VWS V14.01,2013-02-12 03:00:00,
2013-02-11 20:30:00,33.8,12.1,30.04,NNW,338,0.0,0.0,40,0.00,,,0.00,VWS V14.01,2013-02-12 03:30:00,
2013-02-11 21:00:00,35.0,11.4,30.04,North,0,0.0,1.0,37,0.00,,,0.00,VWS V14.01,2013-02-12 04:00:00,
2013-02-11 21:30:00,33.4,13.3,30.03,North,0,0.0,0.0,43,0.00,,,0.00,VWS V14.01,2013-02-12 04:30:00,
2013-02-11 22:00:00,33.8,11.5,30.04,NNW,338,0.0,1.0,39,0.00,,,0.00,VWS V14.01,2013-02-12 05:00:00,
2013-02-11 22:30:00,33.7,10.8,30.02,NNW,338,0.0,1.0,38,0.00,,,0.00,VWS V14.01,2013-02-12 05:30:00,
2013-02-11 23:00:00,33.4,12.8,30.02,WNW,292,0.0,1.0,42,0.00,,,0.00,VWS V14.01,2013-02-12 06:00:00,
2013-02-11 23:30:00,32.2,15.2,29.99,WNW,292,0.0,0.0,49,0.00,,,0.00,VWS V14.01,2013-02-12 06:30:00,